User: anonymous   Login
Location: Unspecified
(0.0000°N, 0.0000°E)
Time: 07:50:33
(UTC+00:00)
Language:

COSMOS 2453 - Orbit

View from above orbital plane
View from above orbital plane
View from above satellite
View from above satellite

Ground track
Ground track

The orbit data is extracted from the following two-line orbital elements,

1 35500U 09036C   17328.72353551  .00000011  00000-0  11179-4 0  9998
2 35500  82.4918 230.0189 0007381 120.1475 240.0343 12.41453152380150
Epoch (UTC): 24 November 2017 17:21:53
Eccentricity: 0.0007381
inclination: 82.4918°
perigee height: 1494 km
apogee height: 1506 km
right ascension of ascending node: 230.0189°
argument of perigee: 120.1475°
revolutions per day: 12.41453152
mean anomaly at epoch: 240.0343°
orbit number at epoch: 38015

The dashed part of the orbit path shows where the satellite is in the earth's shadow,  

DLR